Вернуться в каталог

FENGYUN 1C DEB

АктивенSSO
NORAD 30148·DEBRIS·🇨🇳 China

Запущен May 10, 1999 с Taiyuan Satellite Launch Center

Loading…

Ближайшие Пролёты (ближайшие 24 часа)

TLE

СвежийSource: Space-Track

Эпоха: Sep 13, 2026, 09:47 UTC

1 30148U 99025TD  26256.40819675  .00000604  00000-0  50028-3 0  9990
2 30148  99.5788  57.7048 0134193 184.6976 205.1796 13.88924711993293

Отслеживайте FENGYUN 1C DEB в реальном времени с AllMySat

Download on the App Store